Location: FWAS Thompsen Ranch
(33.4402°N, 97.5607°W)
Time: 06:02:30
(UTC-05:00)

Tiangong 2 - Visible Passes

Search period start: 20 June 2018 00:00
Search period end: 30 June 2018 00:00
Orbit: 291 x 297 km, 42.8° (Epoch: 20 June)

Date Brightness Start Highest point End Pass type
(mag) Time Alt. Az. Time Alt. Az. Time Alt. Az.
24 Jun 2.7 05:04:50 15° SSE 05:05:32 17° SE 05:07:18 10° E visible
25 Jun 1.2 05:10:19 28° SSW 05:11:12 41° SE 05:13:38 10° ENE visible
26 Jun 0.5 05:15:39 26° WSW 05:16:52 73° NNW 05:19:25 10° ENE visible
27 Jun 1.9 05:20:50 15° W 05:22:31 32° NNW 05:24:52 10° NE visible
28 Jun 3.9 03:55:35 12° ENE 03:55:35 12° ENE 03:55:50 10° ENE visible
28 Jun 2.8 05:26:12 10° WNW 05:28:10 19° NNW 05:30:06 10° NNE visible
29 Jun 3.6 04:00:31 17° NE 04:00:31 17° NE 04:01:16 10° NE visible
29 Jun 3.4 05:32:20 10° NW 05:33:46 14° NNW 05:35:12 10° NNE visible
